QPF
0.00 0.00 0.01 0.00 0.00 0.00 0.00 0.01 0.01 0.02 0.03 0.04 0.06 0.06 0.04 0.03 0.03 0.03 0.04 0.04 0.03 0.03 0.02 0.01 0.01 0.01 0.00 0.00 0.00 0.00 0.00 0.00 0.00 0.00 0.00 0.00 0.01 0.02 0.02 0.02 0.02 0.02 0.01
0.00 0.00 0.00 0.00 0.00 0.00 0.00 0.01 0.01 0.02 0.02 0.03 0.04 0.03 0.02 0.02 0.02 0.02 0.02 0.02 0.01 0.01 0.01 0.01 0.01 0.00 0.00 0.00 0.00 0.00 0.00 0.00 0.00 0.00 0.00 0.00 0.01 0.01 0.02 0.02 0.03 0.03 0.02
0.00 0.00 0.00 0.01 0.01 0.01 0.01 0.01 0.02 0.03 0.02 0.02 0.02 0.01 0.01 0.02 0.02 0.02 0.02 0.02 0.01 0.01 0.01 0.01 0.01 0.01 0.00 0.00 0.00 0.00 0.00 0.00 0.00 0.01 0.00 0.00 0.00 0.01 0.01 0.02 0.03 0.03 0.03
0.00 0.00 0.00 0.01 0.01 0.01 0.01 0.01 0.01 0.02 0.02 0.02 0.02 0.01 0.01 0.01 0.02 0.02 0.02 0.01 0.01 0.01 0.01 0.00 0.00 0.01 0.01 0.00 0.00 0.00 0.00 0.00 0.00 0.00 0.00 0.01 0.01 0.01 0.01 0.02 0.03 0.04 0.04
0.00 0.00 0.00 0.01 0.01 0.01 0.01 0.01 0.01 0.01 0.02 0.01 0.01 0.01 0.01 0.01 0.01 0.01 0.01 0.01 0.01 0.01 0.01 0.00 0.00 0.00 0.01 0.01 0.00 0.00 0.00 0.01 0.01 0.00 0.00 0.01 0.01 0.01 0.01 0.02 0.03 0.03 0.04
0.01 0.00 0.00 0.01 0.01 0.00 0.01 0.00 0.01 0.01 0.02 0.02 0.01 0.01 0.01 0.01 0.01 0.01 0.00 0.00 0.00 0.01 0.01 0.01 0.01 0.00 0.00 0.01 0.01 0.01 0.01 0.01 0.01 0.01 0.00 0.01 0.01 0.01 0.01 0.02 0.03 0.04 0.06
0.03 0.02 0.01 0.01 0.01 0.00 0.00 0.00 0.00 0.00 0.01 0.02 0.01 0.01 0.01 0.01 0.01 0.01 0.01 0.00 0.00 0.00 0.00 0.01 0.01 0.01 0.00 0.00 0.00 0.00 0.00 0.00 0.01 0.01 0.01 0.00 0.01 0.01 0.01 0.02 0.02 0.04 0.05
0.03 0.04 0.03 0.02 0.01 0.01 0.01 0.00 0.00 0.01 0.01 0.01 0.01 0.01 0.01 0.01 0.01 0.01 0.01 0.01 0.00 0.00 0.00 0.00 0.01 0.01 0.01 0.01 0.01 0.00 0.00 0.00 0.00 0.00 0.01 0.01 0.01 0.01 0.01 0.02 0.02 0.03 0.04
0.02 0.03 0.05 0.04 0.03 0.02 0.01 0.01 0.01 0.02 0.01 0.01 0.01 0.01 0.01 0.01 0.01 0.01 0.01 0.01 0.00 0.00 0.00 0.00 0.00 0.01 0.01 0.02 0.01 0.01 0.00 0.00 0.00 0.00 0.00 0.01 0.01 0.01 0.01 0.02 0.03 0.04 0.05
0.02 0.02 0.04 0.05 0.05 0.03 0.02 0.02 0.02 0.02 0.02 0.01 0.01 0.01 0.01 0.01 0.01 0.01 0.01 0.01 0.01 0.00 0.00 0.00 0.00 0.01 0.01 0.02 0.01 0.01 0.01 0.00 0.01 0.01 0.01 0.01 0.00 0.01 0.01 0.02 0.03 0.04 0.04
0.01 0.01 0.02 0.03 0.03 0.03 0.03 0.03 0.02 0.02 0.02 0.02 0.02 0.01 0.01 0.01 0.01 0.01 0.01 0.01 0.01 0.01 0.00 0.00 0.00 0.01 0.01 0.01 0.01 0.01 0.01 0.01 0.01 0.01 0.01 0.02 0.01 0.01 0.02 0.02 0.03 0.03 0.03
0.01 0.01 0.01 0.02 0.03 0.03 0.03 0.03 0.02 0.02 0.02 0.02 0.01 0.01 0.01 0.01 0.01 0.01 0.01 0.01 0.01 0.01 0.01 0.01 0.01 0.01 0.01 0.02 0.01 0.01 0.01 0.02 0.02 0.02 0.02 0.03 0.03 0.02 0.03 0.03 0.04 0.04 0.03
0.01 0.01 0.01 0.01 0.02 0.02 0.02 0.04 0.03 0.02 0.02 0.01 0.01 0.01 0.01 0.01 0.01 0.01 0.01 0.01 0.01 0.01 0.01 0.01 0.01 0.01 0.02 0.02 0.02 0.01 0.02 0.01 0.02 0.02 0.03 0.04 0.04 0.04 0.03 0.04 0.05 0.05 0.05
0.00 0.01 0.01 0.01 0.02 0.02 0.02 0.04 0.06 0.04 0.03 0.02 0.02 0.01 0.01 0.01 0.00 0.01 0.01 0.01 0.01 0.01 0.01 0.02 0.02 0.02 0.02 0.02 0.02 0.02 0.02 0.02 0.02 0.01 0.02 0.04 0.05 0.06 0.06 0.05 0.05 0.06 0.06
0.01 0.01 0.01 0.01 0.01 0.02 0.02 0.03 0.06 0.07 0.05 0.03 0.03 0.02 0.01 0.01 0.01 0.01 0.01 0.01 0.00 0.01 0.01 0.02 0.02 0.02 0.02 0.02 0.02 0.01 0.01 0.02 0.02 0.02 0.02 0.02 0.05 0.07 0.08 0.07 0.07 0.06 0.07
0.01 0.01 0.01 0.01 0.01 0.01 0.02 0.03 0.05 0.07 0.06 0.04 0.04 0.04 0.02 0.01 0.01 0.01 0.01 0.01 0.01 0.02 0.02 0.01 0.02 0.02 0.01 0.01 0.01 0.01 0.01 0.01 0.01 0.02 0.02 0.03 0.03 0.05 0.08 0.08 0.08 0.08 0.07
0.01 0.01 0.01 0.01 0.01 0.01 0.02 0.02 0.03 0.04 0.04 0.04 0.04 0.04 0.04 0.03 0.02 0.02 0.02 0.02 0.03 0.03 0.02 0.01 0.01 0.01 0.01 0.01 0.01 0.01 0.01 0.01 0.01 0.02 0.02 0.02 0.03 0.04 0.05 0.08 0.07 0.07 0.07
0.01 0.01 0.01 0.01 0.01 0.02 0.02 0.03 0.03 0.03 0.03 0.03 0.03 0.04 0.04 0.04 0.03 0.03 0.03 0.03 0.03 0.02 0.02 0.01 0.01 0.02 0.01 0.01 0.01 0.01 0.02 0.02 0.02 0.02 0.03 0.03 0.03 0.03 0.04 0.05 0.06 0.06 0.06
0.01 0.01 0.01 0.01 0.01 0.02 0.02 0.03 0.04 0.04 0.03 0.03 0.03 0.03 0.04 0.05 0.05 0.05 0.04 0.03 0.02 0.02 0.02 0.02 0.02 0.02 0.01 0.01 0.01 0.01 0.02 0.03 0.04 0.04 0.04 0.04 0.04 0.04 0.04 0.04 0.05 0.07 0.07
0.01 0.01 0.01 0.01 0.01 0.01 0.01 0.02 0.03 0.04 0.04 0.04 0.03 0.02 0.02 0.03 0.04 0.05 0.05 0.04 0.03 0.02 0.02 0.01 0.01 0.01 0.02 0.01 0.01 0.01 0.02 0.03 0.04 0.05 0.05 0.05 0.06 0.06 0.05 0.05 0.06 0.07 0.09
0.00 0.00 0.01 0.01 0.01 0.01 0.01 0.02 0.02 0.03 0.03 0.04 0.04 0.04 0.03 0.03 0.03 0.04 0.05 0.05 0.05 0.04 0.03 0.03 0.02 0.02 0.02 0.02 0.02 0.02 0.02 0.03 0.03 0.04 0.05 0.05 0.05 0.05 0.06 0.06 0.07 0.07 0.09
0.00 0.00 0.00 0.00 0.00 0.01 0.01 0.02 0.02 0.03 0.03 0.03 0.03 0.03 0.04 0.04 0.04 0.04 0.04 0.04 0.04 0.04 0.05 0.05 0.04 0.03 0.03 0.03 0.02 0.02 0.02 0.02 0.02 0.03 0.04 0.04 0.04 0.04 0.04 0.05 0.06 0.07 0.08
0.01 0.01 0.01 0.00 0.00 0.01 0.01 0.02 0.02 0.03 0.03 0.03 0.03 0.03 0.04 0.04 0.05 0.05 0.06 0.05 0.04 0.04 0.04 0.04 0.04 0.04 0.03 0.03 0.03 0.02 0.02 0.02 0.02 0.02 0.02 0.03 0.03 0.04 0.04 0.04 0.05 0.05 0.06
0.00 0.00 0.01 0.01 0.01 0.01 0.01 0.02 0.02 0.02 0.03 0.03 0.04 0.04 0.05 0.05 0.05 0.07 0.08 0.08 0.08 0.07 0.06 0.05 0.04 0.03 0.04 0.04 0.03 0.02 0.02 0.02 0.01 0.01 0.02 0.03 0.03 0.03 0.03 0.03 0.04 0.04 0.05
0.00 0.00 0.01 0.01 0.01 0.01 0.01 0.01 0.01 0.02 0.03 0.03 0.04 0.05 0.06 0.06 0.07 0.07 0.09 0.09 0.10 0.10 0.09 0.08 0.06 0.05 0.04 0.04 0.04 0.03 0.03 0.03 0.02 0.02 0.01 0.02 0.02 0.02 0.03 0.03 0.03 0.04 0.04
0.00 0.00 0.01 0.02 0.02 0.01 0.01 0.01 0.01 0.02 0.02 0.03 0.03 0.05 0.06 0.07 0.08 0.08 0.09 0.09 0.10 0.10 0.10 0.10 0.09 0.07 0.06 0.05 0.05 0.05 0.05 0.04 0.03 0.02 0.02 0.02 0.02 0.02 0.02 0.03 0.03 0.04 0.04
MSLP
1023.70 1023.34 1022.97 1022.57 1022.12 1021.62 1021.06 1020.47 1019.86 1019.26 1018.71 1018.23 1017.86 1017.62 1017.51 1017.54 1017.69 1017.95 1018.30 1018.73 1019.20 1019.70 1020.21 1020.72 1021.22 1021.71 1022.19 1022.65 1023.11 1023.56 1024.01 1024.44 1024.86 1025.24 1025.58 1025.87 1026.09 1026.25 1026.35 1026.40 1026.41 1026.40 1026.38
1023.87 1023.50 1023.11 1022.70 1022.24 1021.72 1021.14 1020.52 1019.86 1019.21 1018.59 1018.04 1017.59 1017.26 1017.07 1017.01 1017.10 1017.32 1017.64 1018.06 1018.54 1019.05 1019.58 1020.11 1020.63 1021.14 1021.62 1022.10 1022.57 1023.04 1023.51 1023.98 1024.45 1024.89 1025.31 1025.68 1025.99 1026.24 1026.43 1026.56 1026.65 1026.71 1026.76
1023.88 1023.48 1023.07 1022.63 1022.15 1021.62 1021.04 1020.40 1019.74 1019.06 1018.41 1017.82 1017.31 1016.91 1016.65 1016.53 1016.55 1016.71 1016.99 1017.37 1017.83 1018.34 1018.88 1019.43 1019.96 1020.49 1021.00 1021.49 1021.98 1022.47 1022.97 1023.47 1023.97 1024.46 1024.93 1025.36 1025.74 1026.07 1026.33 1026.54 1026.71 1026.83 1026.94
1023.79 1023.34 1022.89 1022.42 1021.92 1021.39 1020.80 1020.18 1019.53 1018.86 1018.21 1017.60 1017.06 1016.62 1016.29 1016.10 1016.04 1016.13 1016.34 1016.66 1017.08 1017.56 1018.09 1018.64 1019.18 1019.73 1020.26 1020.79 1021.30 1021.82 1022.35 1022.88 1023.41 1023.93 1024.43 1024.91 1025.33 1025.71 1026.03 1026.31 1026.53 1026.72 1026.88
1023.65 1023.14 1022.64 1022.13 1021.61 1021.07 1020.51 1019.91 1019.28 1018.65 1018.02 1017.41 1016.86 1016.38 1016.00 1015.73 1015.58 1015.57 1015.69 1015.93 1016.28 1016.70 1017.19 1017.72 1018.28 1018.84 1019.40 1019.96 1020.51 1021.07 1021.62 1022.18 1022.73 1023.27 1023.80 1024.29 1024.75 1025.16 1025.53 1025.85 1026.12 1026.37 1026.58
1023.49 1022.92 1022.36 1021.81 1021.27 1020.73 1020.18 1019.61 1019.03 1018.43 1017.84 1017.25 1016.69 1016.18 1015.74 1015.40 1015.15 1015.03 1015.04 1015.17 1015.42 1015.77 1016.20 1016.70 1017.24 1017.81 1018.40 1018.99 1019.59 1020.18 1020.77 1021.35 1021.92 1022.48 1023.02 1023.53 1024.01 1024.44 1024.84 1025.20 1025.52 1025.81 1026.07
1023.33 1022.69 1022.08 1021.49 1020.92 1020.37 1019.83 1019.29 1018.75 1018.19 1017.63 1017.06 1016.51 1015.97 1015.48 1015.05 1014.72 1014.48 1014.36 1014.38 1014.52 1014.78 1015.14 1015.60 1016.12 1016.69 1017.30 1017.92 1018.55 1019.17 1019.79 1020.40 1021.00 1021.57 1022.12 1022.64 1023.14 1023.60 1024.03 1024.42 1024.78 1025.11 1025.42
1023.16 1022.46 1021.79 1021.15 1020.55 1019.98 1019.44 1018.91 1018.39 1017.87 1017.33 1016.78 1016.23 1015.67 1015.14 1014.65 1014.23 1013.89 1013.67 1013.57 1013.61 1013.78 1014.07 1014.48 1014.97 1015.53 1016.14 1016.78 1017.43 1018.08 1018.73 1019.36 1019.98 1020.57 1021.13 1021.68 1022.19 1022.68 1023.14 1023.57 1023.98 1024.35 1024.71
1022.96 1022.19 1021.46 1020.76 1020.12 1019.52 1018.96 1018.42 1017.90 1017.39 1016.86 1016.32 1015.77 1015.21 1014.65 1014.12 1013.64 1013.24 1012.94 1012.77 1012.72 1012.82 1013.05 1013.40 1013.86 1014.40 1014.99 1015.64 1016.30 1016.96 1017.63 1018.28 1018.90 1019.52 1020.10 1020.67 1021.21 1021.73 1022.23 1022.71 1023.16 1023.59 1023.99
1022.68 1021.85 1021.05 1020.29 1019.59 1018.94 1018.33 1017.76 1017.22 1016.69 1016.17 1015.63 1015.08 1014.52 1013.97 1013.43 1012.94 1012.52 1012.19 1011.97 1011.89 1011.94 1012.12 1012.43 1012.85 1013.36 1013.93 1014.55 1015.20 1015.87 1016.53 1017.18 1017.83 1018.45 1019.06 1019.66 1020.23 1020.79 1021.34 1021.86 1022.36 1022.84 1023.28
1022.29 1021.41 1020.55 1019.72 1018.94 1018.22 1017.55 1016.92 1016.33 1015.77 1015.22 1014.68 1014.14 1013.60 1013.07 1012.57 1012.11 1011.71 1011.40 1011.20 1011.11 1011.15 1011.31 1011.59 1011.97 1012.44 1012.98 1013.56 1014.19 1014.83 1015.47 1016.12 1016.77 1017.40 1018.03 1018.65 1019.27 1019.87 1020.45 1021.02 1021.57 1022.09 1022.57
1021.82 1020.88 1019.95 1019.05 1018.19 1017.38 1016.62 1015.91 1015.25 1014.63 1014.04 1013.49 1012.96 1012.45 1011.97 1011.53 1011.14 1010.82 1010.57 1010.42 1010.37 1010.43 1010.59 1010.85 1011.20 1011.63 1012.12 1012.66 1013.24 1013.84 1014.46 1015.09 1015.73 1016.38 1017.02 1017.67 1018.31 1018.94 1019.56 1020.17 1020.75 1021.30 1021.81
1021.27 1020.28 1019.30 1018.33 1017.39 1016.48 1015.62 1014.80 1014.05 1013.36 1012.72 1012.14 1011.61 1011.14 1010.72 1010.36 1010.07 1009.84 1009.68 1009.61 1009.62 1009.72 1009.90 1010.15 1010.48 1010.87 1011.31 1011.80 1012.33 1012.89 1013.48 1014.09 1014.72 1015.36 1016.02 1016.68 1017.34 1018.00 1018.64 1019.27 1019.87 1020.43 1020.95
1020.70 1019.68 1018.65 1017.62 1016.59 1015.59 1014.62 1013.70 1012.85 1012.07 1011.36 1010.75 1010.21 1009.76 1009.40 1009.11 1008.91 1008.77 1008.71 1008.72 1008.80 1008.94 1009.14 1009.40 1009.70 1010.06 1010.46 1010.91 1011.40 1011.92 1012.48 1013.08 1013.70 1014.35 1015.01 1015.69 1016.36 1017.03 1017.68 1018.31 1018.90 1019.46 1019.98
1020.18 1019.14 1018.08 1016.99 1015.89 1014.80 1013.74 1012.72 1011.76 1010.89 1010.11 1009.44 1008.88 1008.43 1008.09 1007.86 1007.71 1007.65 1007.66 1007.73 1007.85 1008.02 1008.24 1008.49 1008.78 1009.12 1009.49 1009.90 1010.36 1010.87 1011.42 1012.02 1012.65 1013.31 1013.98 1014.67 1015.35 1016.02 1016.67 1017.29 1017.86 1018.40 1018.91
1019.76 1018.73 1017.65 1016.53 1015.38 1014.23 1013.08 1011.97 1010.92 1009.96 1009.10 1008.36 1007.75 1007.27 1006.92 1006.68 1006.55 1006.50 1006.53 1006.62 1006.75 1006.93 1007.13 1007.37 1007.64 1007.96 1008.31 1008.72 1009.18 1009.69 1010.26 1010.87 1011.53 1012.22 1012.92 1013.62 1014.31 1014.98 1015.62 1016.22 1016.78 1017.30 1017.77
1019.50 1018.48 1017.40 1016.28 1015.11 1013.91 1012.71 1011.54 1010.42 1009.37 1008.43 1007.62 1006.93 1006.39 1005.97 1005.68 1005.50 1005.41 1005.39 1005.44 1005.53 1005.66 1005.83 1006.04 1006.28 1006.58 1006.93 1007.34 1007.82 1008.36 1008.96 1009.62 1010.32 1011.05 1011.79 1012.52 1013.23 1013.91 1014.55 1015.13 1015.67 1016.17 1016.63
1019.40 1018.41 1017.36 1016.25 1015.08 1013.88 1012.67 1011.46 1010.29 1009.19 1008.18 1007.28 1006.51 1005.87 1005.35 1004.95 1004.66 1004.46 1004.34 1004.28 1004.28 1004.32 1004.41 1004.56 1004.76 1005.03 1005.37 1005.80 1006.30 1006.88 1007.54 1008.25 1009.01 1009.79 1010.58 1011.35 1012.09 1012.78 1013.43 1014.02 1014.55 1015.04 1015.50
1019.48 1018.52 1017.51 1016.44 1015.31 1014.14 1012.94 1011.74 1010.56 1009.43 1008.37 1007.40 1006.53 1005.77 1005.12 1004.58 1004.13 1003.77 1003.48 1003.27 1003.12 1003.03 1003.01 1003.07 1003.20 1003.43 1003.75 1004.17 1004.69 1005.31 1006.01 1006.78 1007.59 1008.42 1009.25 1010.07 1010.84 1011.56 1012.23 1012.84 1013.39 1013.89 1014.36
1019.69 1018.78 1017.82 1016.81 1015.75 1014.64 1013.50 1012.34 1011.19 1010.06 1008.98 1007.95 1007.00 1006.13 1005.34 1004.63 1004.00 1003.44 1002.96 1002.56 1002.22 1001.97 1001.80 1001.73 1001.77 1001.92 1002.19 1002.59 1003.10 1003.72 1004.44 1005.23 1006.07 1006.93 1007.80 1008.65 1009.46 1010.22 1010.92 1011.56 1012.14 1012.68 1013.17
1020.03 1019.17 1018.28 1017.34 1016.37 1015.35 1014.30 1013.22 1012.13 1011.04 1009.96 1008.91 1007.89 1006.92 1006.00 1005.13 1004.32 1003.57 1002.88 1002.27 1001.74 1001.29 1000.96 1000.73 1000.64 1000.68 1000.86 1001.18 1001.64 1002.22 1002.91 1003.67 1004.50 1005.36 1006.24 1007.09 1007.92 1008.71 1009.45 1010.13 1010.75 1011.33 1011.87
1020.46 1019.65 1018.83 1017.99 1017.11 1016.20 1015.26 1014.29 1013.28 1012.26 1011.22 1010.18 1009.13 1008.09 1007.07 1006.07 1005.10 1004.18 1003.30 1002.49 1001.77 1001.14 1000.62 1000.23 999.98 999.87 999.91 1000.11 1000.45 1000.93 1001.52 1002.20 1002.96 1003.77 1004.60 1005.44 1006.26 1007.06 1007.82 1008.54 1009.22 1009.84 1010.43
1020.96 1020.21 1019.46 1018.71 1017.94 1017.15 1016.33 1015.47 1014.58 1013.64 1012.67 1011.66 1010.62 1009.55 1008.47 1007.39 1006.31 1005.25 1004.23 1003.27 1002.38 1001.58 1000.89 1000.33 999.90 999.62 999.48 999.51 999.67 999.98 1000.41 1000.94 1001.57 1002.26 1003.00 1003.78 1004.57 1005.35 1006.12 1006.86 1007.57 1008.24 1008.87
1021.50 1020.82 1020.15 1019.49 1018.82 1018.14 1017.43 1016.69 1015.90 1015.06 1014.17 1013.22 1012.22 1011.16 1010.08 1008.96 1007.83 1006.70 1005.60 1004.53 1003.53 1002.60 1001.77 1001.04 1000.44 999.97 999.64 999.45 999.40 999.49 999.70 1000.03 1000.47 1001.00 1001.61 1002.28 1002.99 1003.73 1004.49 1005.23 1005.96 1006.66 1007.31
1022.08 1021.46 1020.86 1020.28 1019.70 1019.12 1018.51 1017.87 1017.18 1016.43 1015.62 1014.74 1013.80 1012.80 1011.74 1010.65 1009.53 1008.40 1007.28 1006.17 1005.11 1004.11 1003.17 1002.32 1001.57 1000.92 1000.39 999.98 999.69 999.53 999.51 999.60 999.82 1000.16 1000.60 1001.13 1001.74 1002.41 1003.12 1003.84 1004.57 1005.27 1005.93
1022.67 1022.11 1021.58 1021.07 1020.57 1020.05 1019.52 1018.95 1018.34 1017.66 1016.93 1016.13 1015.26 1014.33 1013.35 1012.33 1011.27 1010.20 1009.12 1008.04 1006.99 1005.96 1004.98 1004.05 1003.18 1002.39 1001.68 1001.06 1000.55 1000.16 999.89 999.74 999.74 999.86 1000.12 1000.51 1000.99 1001.57 1002.21 1002.90 1003.59 1004.28 1004.92
Thickness
5632 5630 5628 5626 5625 5623 5622 5621 5621 5620 5618 5617 5615 5614 5612 5610 5609 5607 5605 5603 5601 5599 5598 5597 5596 5595 5594 5593 5592 5591 5589 5587 5585 5584 5584 5585 5586 5586 5587 5588 5589 5590 5591
5626 5625 5622 5620 5619 5618 5617 5616 5615 5614 5613 5611 5609 5607 5605 5604 5602 5600 5598 5596 5594 5592 5591 5590 5589 5589 5587 5585 5584 5583 5582 5581 5579 5577 5577 5578 5578 5578 5578 5579 5581 5582 5583
5620 5618 5616 5614 5613 5612 5611 5610 5609 5608 5606 5605 5603 5601 5599 5597 5595 5594 5592 5590 5588 5586 5585 5583 5583 5581 5579 5578 5577 5576 5575 5575 5573 5571 5570 5569 5569 5570 5570 5571 5572 5573 5575
5613 5611 5609 5608 5607 5606 5605 5604 5603 5602 5600 5598 5596 5595 5593 5591 5589 5587 5585 5583 5581 5580 5578 5577 5576 5575 5574 5573 5572 5570 5569 5567 5565 5564 5562 5562 5561 5561 5561 5561 5562 5564 5565
5606 5604 5603 5601 5600 5599 5598 5597 5596 5595 5593 5592 5590 5588 5587 5585 5584 5581 5579 5577 5574 5572 5571 5571 5570 5570 5570 5568 5567 5564 5563 5560 5558 5556 5555 5554 5554 5553 5553 5553 5554 5555 5556
5599 5598 5596 5594 5592 5591 5591 5590 5588 5587 5586 5584 5582 5581 5579 5579 5579 5577 5573 5570 5568 5566 5565 5564 5564 5564 5564 5563 5562 5560 5558 5555 5552 5550 5548 5547 5548 5547 5546 5546 5545 5546 5548
5593 5591 5589 5587 5585 5584 5583 5582 5580 5579 5578 5576 5575 5573 5572 5572 5573 5571 5568 5565 5562 5560 5559 5558 5558 5558 5556 5555 5554 5554 5552 5551 5550 5546 5544 5543 5542 5543 5541 5540 5539 5539 5541
5584 5582 5581 5579 5578 5577 5575 5574 5573 5572 5570 5569 5568 5566 5565 5565 5566 5565 5562 5558 5556 5554 5553 5552 5551 5550 5550 5549 5547 5546 5544 5543 5543 5542 5541 5541 5540 5539 5537 5536 5534 5533 5533
5576 5575 5574 5572 5571 5570 5569 5567 5566 5564 5563 5562 5561 5559 5558 5558 5559 5558 5555 5551 5549 5548 5547 5546 5546 5544 5545 5544 5541 5539 5538 5538 5538 5537 5536 5536 5535 5534 5532 5529 5527 5527 5528
5569 5569 5567 5566 5565 5564 5563 5561 5559 5558 5557 5556 5554 5552 5551 5550 5550 5550 5548 5544 5541 5540 5540 5539 5540 5540 5540 5538 5535 5533 5532 5531 5531 5531 5530 5529 5528 5527 5526 5524 5523 5522 5522
5562 5561 5560 5559 5558 5558 5556 5555 5553 5552 5550 5549 5547 5545 5544 5543 5543 5542 5540 5537 5536 5534 5533 5533 5533 5534 5534 5533 5531 5529 5528 5527 5525 5524 5522 5521 5521 5520 5519 5519 5519 5518 5518
5555 5553 5552 5552 5551 5551 5549 5548 5546 5545 5543 5541 5539 5538 5537 5536 5535 5535 5534 5533 5532 5529 5528 5528 5528 5528 5528 5527 5525 5524 5523 5521 5519 5517 5515 5515 5514 5514 5514 5514 5514 5515 5515
5546 5545 5544 5543 5543 5542 5541 5540 5539 5537 5536 5535 5533 5531 5530 5530 5529 5529 5528 5527 5526 5524 5523 5523 5523 5523 5521 5520 5519 5519 5516 5514 5512 5510 5510 5510 5509 5509 5508 5508 5509 5509 5510
5538 5536 5535 5534 5534 5533 5533 5532 5531 5530 5529 5528 5527 5526 5525 5524 5522 5521 5521 5520 5519 5518 5517 5516 5516 5515 5514 5513 5512 5511 5509 5508 5507 5506 5506 5505 5504 5502 5502 5502 5502 5503 5502
5529 5528 5526 5526 5525 5524 5524 5524 5524 5525 5524 5522 5522 5521 5519 5518 5519 5518 5516 5515 5513 5512 5510 5507 5506 5505 5505 5505 5504 5504 5503 5502 5501 5500 5499 5498 5498 5497 5496 5496 5495 5495 5495
5520 5519 5518 5517 5516 5516 5515 5516 5516 5517 5517 5517 5517 5515 5515 5515 5514 5512 5511 5510 5509 5507 5504 5501 5500 5499 5499 5499 5498 5498 5497 5497 5497 5496 5494 5493 5493 5492 5491 5490 5490 5490 5490
5512 5511 5509 5508 5507 5506 5506 5506 5507 5508 5509 5509 5509 5509 5508 5508 5507 5506 5505 5503 5502 5500 5497 5496 5495 5494 5493 5493 5493 5493 5492 5492 5492 5490 5489 5489 5488 5487 5486 5485 5484 5484 5485
5505 5503 5501 5499 5498 5498 5498 5498 5498 5499 5499 5500 5501 5501 5501 5500 5500 5499 5497 5495 5492 5492 5491 5491 5490 5489 5489 5488 5488 5488 5488 5487 5486 5486 5485 5484 5483 5482 5481 5481 5480 5479 5480
5497 5495 5493 5491 5490 5489 5489 5488 5489 5489 5489 5489 5490 5491 5492 5492 5492 5491 5489 5487 5486 5486 5486 5485 5485 5484 5484 5484 5484 5483 5483 5482 5482 5481 5481 5479 5478 5477 5477 5476 5476 5476 5476
5489 5489 5487 5483 5482 5481 5480 5479 5479 5479 5479 5479 5480 5481 5482 5482 5482 5482 5481 5480 5480 5480 5480 5480 5480 5480 5479 5479 5479 5478 5477 5477 5476 5476 5476 5475 5474 5473 5473 5473 5473 5472 5473
5482 5481 5480 5477 5474 5473 5472 5471 5471 5470 5470 5471 5472 5473 5474 5473 5474 5475 5474 5474 5474 5474 5474 5475 5475 5475 5475 5474 5474 5473 5472 5472 5472 5471 5471 5471 5470 5469 5469 5469 5469 5469 5469
5475 5473 5471 5469 5468 5466 5465 5464 5462 5462 5462 5462 5463 5464 5465 5465 5466 5466 5466 5467 5467 5468 5469 5469 5470 5471 5470 5470 5469 5469 5468 5468 5467 5467 5466 5466 5465 5465 5464 5464 5464 5464 5464
5468 5466 5464 5463 5461 5460 5458 5456 5455 5454 5454 5454 5454 5455 5455 5456 5457 5458 5459 5459 5460 5461 5462 5463 5464 5465 5465 5465 5465 5465 5464 5464 5464 5463 5461 5461 5460 5460 5460 5460 5459 5459 5458
5462 5460 5458 5456 5454 5452 5450 5449 5448 5447 5447 5446 5446 5447 5447 5448 5448 5449 5450 5451 5452 5453 5454 5455 5457 5458 5459 5459 5460 5460 5460 5460 5459 5458 5457 5456 5455 5455 5455 5454 5454 5454 5453
5455 5453 5451 5450 5448 5446 5444 5442 5441 5440 5440 5440 5440 5440 5440 5440 5441 5441 5442 5443 5443 5445 5446 5448 5449 5451 5452 5453 5454 5455 5455 5455 5454 5453 5452 5451 5450 5450 5449 5449 5448 5448 5447
5448 5447 5445 5443 5441 5439 5438 5436 5435 5435 5434 5434 5433 5433 5433 5433 5434 5434 5434 5435 5436 5437 5439 5440 5441 5443 5444 5446 5447 5448 5449 5449 5448 5447 5446 5445 5445 5444 5444 5443 5443 5442 5441